Location: Rounton
(54.4000°N, 1.3500°W)
Time: 08:15:45
(UTC+00:00)

Tiros 1 despin weight - Pass Details

Date: 02 December 2021
Orbit: 592 x 641 km, 48.2° (Epoch: 19 January)

Event Time Altitude Azimuth Distance (km) Brightness Sun altitude
Rises 13:09:43 0° 191° (SSW) 2,824 ? 11.9°
Reaches altitude 10° 13:14:14 10° 149° (SSE) 1,921 ? 11.7°
Maximum altitude 13:14:47 10° 141° (SE) 1,907 ? 11.7°
Drops below altitude 10° 13:15:21 10° 134° (SE) 1,921 ? 11.6°
Sets 13:19:51 0° 91° (E) 2,826 ? 11.4°
